657  
SXUS52 KTAE 131604  
OSOTAE  
OSOTAE  
NORTH FLORIDA/SOUTH ALABAMA/SOUTHWEST GEORGIA WEATHER ROUNDUP  
NATIONAL WEATHER SERVICE TALLAHASSEE FLORIDA  
1200 PM EDT MON JUL 13 2020  
 
NOTE: "FAIR" INDICATES FEW OR NO CLOUDS BELOW 12,000 FEET WITH NO  
SIGNIFICANT WEATHER AND/OR OBSTRUCTIONS TO VISIBILITY.  
 
!FLZ017-115-028-034-025-131700   
..NORTH FLORIDA
 
 
 
CITY SKY/WX TMP DP RH WIND PRES REMARKS  
TALL INTL ARPT MOSUNNY 87 72 60 VRB3 29.94F HX 93  
FSU LOVE BLDG NOT AVBL  
APALACHICOLA PTSUNNY 83 75 77 NW7 29.96R HX 90  
PERRY NOT AVBL  
CROSS CITY MOSUNNY 88 72 59 SW7 29.97R HX 94  
JACKSONVILLE PTSUNNY 86 73 65 W8 29.92S HX 93  

 
 
!FLZ112-006-005-002-011-131700   
..FLORIDA PANHANDLE
 
 
 
CITY SKY/WX TMP DP RH WIND PRES REMARKS  
MARIANNA MOSUNNY 85 73 67 W7 29.94S HX 91  
BONIFAY NOT AVBL  
PANAMA CITY NW FAIR 86 75 69 CALM 29.95S HX 95  
TYNDALL AFB PTSUNNY 86 74 65 W7 29.95 HX 94  
TYND DRONE APT FAIR 86 75 69 W7 29.96S HX 95  
DE FUNIAK SPR PTSUNNY 84 74 72 CALM 29.97R HX 91  
EGLIN AFB CLOUDY 85 76 73 SE6 29.95 HX 95  
DESTIN PTSUNNY 85 76 74 SE7 29.95R HX 94  
HURLBURT PTSUNNY 85 78 78 SW9 29.94R HX 97  
CRESTVIEW MOSUNNY 88 74 63 NW5 29.97R HX 96  
PENSACOLA MOSUNNY 89 78 70 W8G18 29.95R HX 103  

 
 
!ALZ063-066-131700   
..SOUTH ALABAMA
 
 
 
CITY SKY/WX TMP DP RH WIND PRES REMARKS  
DOTHAN MOSUNNY 86 74 67 NW5 29.99R HX 94  
OZARK CAIRNS MOSUNNY 85 73 66 NW6 29.95R HX 91  
FT RUCKER HELI SUNNY 84 72 67 N3 29.95R HX 90  
RUCKER HELI 3 FAIR 84 74 71 NW6 29.95R HX 90  
RUCKER HELI 2 FAIR 84 73 70 NW6 29.94R HX 91  
FLORALA APT NOT AVBL  
ANDALUSIA NOT AVBL  
TROY NOT AVBL  
EUFALA NOT AVBL  
MOBILE PTSUNNY 83 76 79 CALM 29.96R HX 91  

 
 
!GAZ120>161-131700   
..SOUTHWEST AND SOUTH CENTRAL GEORGIA
 
 
 
CITY SKY/WX TMP DP RH WIND PRES REMARKS  
THOMASVILLE FAIR 84 72 65 NW7 29.96S  
BAINBRIDGE MOSUNNY 84 73 69 NW7 29.95S HX 90  
MOODY AFB SUNNY 85 72 63 W3 29.93 HX 91  
VALDOSTA SUNNY 88 71 57 CALM 29.94S HX 94  
MOULTRIE SUNNY 82 72 69 SW5 29.95F  
BLAKELY PTSUNNY 79 68 69 W7 29.95S  
ALBANY SUNNY 84 72 67 SW9 29.96R  
TIFTON FAIR 84 72 66 W8 29.93 HX 90  
FITZGERALD FAIR 87 73 62 W6 29.95S HX 94  
CORDELE FAIR 83 69 60 NW9 29.95R  
AMERICUS NOT AVBL  
HOMERVILLE NOT AVBL  

 
 
!GMZ750-755-770-775-131700   
..COASTAL AND BUOY OBS
 
 
 
STATION/POSITION TIME TEMP WIND PRES VSBY WAVE  
AIR SEA DIR/SP/G HT/PER  
(UTC) (F) (DEG/KT/KT) (MB) (MI) (FT/S)  
KEATON BEACH 1500 83 290/ 5/ 6 1014.6R  
CEDAR KEY 1500 86 250/ 5/ 8 1014.5R  
C TOWER 1500 80 10/ 5/ 6 1014.8R  
APALACHICOLA BUO 1550 270/ 14/ 16 1015.2R 2/ 4  
PANAMA CITY BUOY 1550 280/ 12/ 14 1014.7R 2/ 3  
MOBILE BUOY 1550 260/ 12/ 16 1014.9R 2/ 4  
ORANGE BCH AL BU 1550 81 84 280/ 14/ 17 1014.1R 2/ 4  

 
 
 
CLICK HERE TO GO TO PREVIOUS BULLETINS.

The Nexlab FL Page
The Nexlab GA Page
The Nexlab AL Page Main Text Page